When you browse on this site, cookies collect data to enhance your experience and personalize the content and advertising you see.
Visit our Privacy Policy to learn more. By continuing to use the site, you agree to this use of cookies and data.
  • In France
  • List of Countries
  • For 7 days
  • Water Temperature
  • Satellite Maps
  • Weather Map
  • Weather Widgets
  • user-avatar
    Login

    Hourly Weather Urumqi

    Today, 19 July, Friday

    Time Temperature Precipitation Wind Pressure Humidity
    00:00 +29°C° 0 mm 2 mps 684 mmHg 30%
    01:00 +28°C° 0 mm 2 mps 683 mmHg 30%
    02:00 +28°C° 0 mm 2 mps 683 mmHg 31%
    03:00 +28°C° 0 mm 1 mps 682 mmHg 31%
    04:00 +28°C° 0 mm 1 mps 683 mmHg 30%
    05:00 +28°C° 0 mm 2 mps 683 mmHg 30%
    06:00 +29°C° 0 mm 2 mps 684 mmHg 31%
    07:00 +30°C° 0 mm 2 mps 684 mmHg 26%
    08:00 +32°C° 0 mm 1 mps 684 mmHg 21%
    09:00 +33°C° 0 mm 1 mps 684 mmHg 17%
    10:00 +35°C° 0 mm 2 mps 684 mmHg 15%
    11:00 +36°C° 0 mm 2 mps 684 mmHg 14%
    12:00 +37°C° 0 mm 2 mps 684 mmHg 12%
    13:00 +37°C° 0 mm 3 mps 684 mmHg 12%
    14:00 +38°C° 0 mm 3 mps 683 mmHg 11%
    15:00 +38°C° 0 mm 4 mps 683 mmHg 11%
    16:00 +38°C° 0 mm 4 mps 683 mmHg 12%
    17:00 +37°C° 0 mm 4 mps 683 mmHg 12%
    18:00 +37°C° 0 mm 4 mps 683 mmHg 13%
    19:00 +35°C° 0 mm 4 mps 683 mmHg 15%
    20:00 +34°C° 0 mm 4 mps 683 mmHg 18%
    21:00 +31°C° 0 mm 3 mps 683 mmHg 20%
    22:00 +31°C° 0 mm 3 mps 683 mmHg 21%
    23:00 +30°C° 0 mm 3 mps 683 mmHg 21%

    Tomorrow, 20 July, Saturday

    Time Temperature Precipitation Wind Pressure Humidity
    00:00 +30°C° 0 mm 3 mps 683 mmHg 22%
    01:00 +29°C° 0 mm 3 mps 682 mmHg 22%
    02:00 +29°C° 0 mm 3 mps 682 mmHg 22%
    03:00 +29°C° 0 mm 3 mps 682 mmHg 22%
    04:00 +28°C° 0 mm 2 mps 682 mmHg 23%
    05:00 +28°C° 0 mm 2 mps 682 mmHg 24%
    06:00 +28°C° 0 mm 1 mps 682 mmHg 24%
    07:00 +29°C° 0 mm 2 mps 682 mmHg 22%
    08:00 +30°C° 0 mm 2 mps 683 mmHg 19%
    09:00 +32°C° 0 mm 2 mps 683 mmHg 17%
    10:00 +34°C° 0 mm 3 mps 683 mmHg 16%
    11:00 +35°C° 0 mm 4 mps 683 mmHg 15%
    12:00 +36°C° 0 mm 4 mps 683 mmHg 15%
    13:00 +36°C° 0 mm 5 mps 683 mmHg 15%
    14:00 +37°C° 0 mm 5 mps 683 mmHg 15%
    15:00 +38°C° 0 mm 6 mps 682 mmHg 15%
    16:00 +36°C° 0 mm 6 mps 682 mmHg 18%
    17:00 +35°C° 0 mm 7 mps 682 mmHg 20%
    18:00 +33°C° 0 mm 7 mps 683 mmHg 23%
    19:00 +32°C° 0 mm 6 mps 683 mmHg 25%
    20:00 +30°C° 0 mm 6 mps 683 mmHg 28%
    21:00 +28°C° 0 mm 5 mps 683 mmHg 30%
    22:00 +28°C° 0 mm 4 mps 682 mmHg 30%
    23:00 +28°C° 0 mm 3 mps 682 mmHg 30%

    Day after tomorrow, 21 July, Sunday

    Time Temperature Precipitation Wind Pressure Humidity
    00:00 +27°C° 0 mm 1 mps 682 mmHg 31%
    01:00 +27°C° 0 mm 1 mps 681 mmHg 31%
    02:00 +27°C° 0 mm 2 mps 681 mmHg 31%
    03:00 +27°C° 0 mm 2 mps 681 mmHg 31%
    04:00 +27°C° 0 mm 2 mps 681 mmHg 31%
    05:00 +27°C° 0 mm 3 mps 681 mmHg 31%
    06:00 +27°C° 0 mm 4 mps 681 mmHg 31%
    07:00 +27°C° 0 mm 4 mps 681 mmHg 31%
    08:00 +28°C° 0 mm 5 mps 682 mmHg 31%
    09:00 +28°C° 0 mm 5 mps 682 mmHg 31%
    10:00 +29°C° 0.1 mm 5 mps 682 mmHg 30%
    11:00 +30°C° 0.1 mm 4 mps 682 mmHg 30%
    12:00 +30°C° 0.1 mm 4 mps 682 mmHg 29%
    13:00 +32°C° 0 mm 4 mps 682 mmHg 27%
    14:00 +33°C° 0 mm 5 mps 682 mmHg 25%
    15:00 +34°C° 0 mm 5 mps 682 mmHg 23%
    16:00 +33°C° 0 mm 5 mps 682 mmHg 24%
    17:00 +33°C° 0 mm 5 mps 683 mmHg 25%
    18:00 +32°C° 0 mm 5 mps 683 mmHg 25%
    19:00 +30°C° 0 mm 5 mps 683 mmHg 28%
    20:00 +29°C° 0 mm 4 mps 683 mmHg 30%
    21:00 +27°C° 0 mm 4 mps 683 mmHg 33%
    22:00 +27°C° 0 mm 4 mps 683 mmHg 33%
    23:00 +27°C° 0 mm 3 mps 683 mmHg 33%

    22 July, Monday

    Time Temperature Precipitation Wind Pressure Humidity
    00:00 +27°C° 0 mm 2 mps 683 mmHg 33%
    01:00 +26°C° 0 mm 2 mps 682 mmHg 33%
    02:00 +26°C° 0 mm 2 mps 682 mmHg 34%
    03:00 +26°C° 0 mm 2 mps 682 mmHg 34%
    04:00 +26°C° 0 mm 2 mps 682 mmHg 34%
    05:00 +26°C° 0 mm 2 mps 682 mmHg 35%
    06:00 +26°C° 0 mm 2 mps 682 mmHg 35%
    07:00 +27°C° 0 mm 2 mps 682 mmHg 33%
    08:00 +28°C° 0 mm 2 mps 682 mmHg 30%
    09:00 +30°C° 0 mm 2 mps 683 mmHg 27%
    10:00 +31°C° 0 mm 3 mps 682 mmHg 25%
    11:00 +33°C° 0 mm 3 mps 682 mmHg 23%
    12:00 +34°C° 0 mm 4 mps 682 mmHg 22%
    13:00 +34°C° 0 mm 4 mps 682 mmHg 21%
    14:00 +35°C° 0 mm 4 mps 682 mmHg 21%
    15:00 +35°C° 0 mm 5 mps 682 mmHg 20%
    16:00 +34°C° 0.1 mm 4 mps 682 mmHg 22%
    17:00 +33°C° 0.1 mm 4 mps 681 mmHg 25%
    18:00 +32°C° 0.1 mm 4 mps 681 mmHg 27%
    19:00 +30°C° 0 mm 4 mps 682 mmHg 29%
    20:00 +30°C° 0 mm 3 mps 682 mmHg 30%
    21:00 +29°C° 0 mm 3 mps 682 mmHg 31%
    22:00 +28°C° 0 mm 3 mps 682 mmHg 31%
    23:00 +28°C° 0 mm 3 mps 682 mmHg 31%

    23 July, Tuesday

    Time Temperature Precipitation Wind Pressure Humidity
    00:00 +28°C° 0 mm 3 mps 682 mmHg 31%
    01:00 +27°C° 0 mm 3 mps 682 mmHg 33%
    02:00 +26°C° 0 mm 3 mps 682 mmHg 36%
    03:00 +26°C° 0 mm 3 mps 681 mmHg 38%
    04:00 +26°C° 0 mm 2 mps 681 mmHg 38%
    05:00 +26°C° 0 mm 2 mps 681 mmHg 39%
    06:00 +26°C° 0 mm 1 mps 681 mmHg 39%
    07:00 +27°C° 0 mm 1 mps 682 mmHg 36%
    08:00 +29°C° 0 mm 1 mps 682 mmHg 32%
    09:00 +30°C° 0 mm 1 mps 682 mmHg 29%
    10:00 +31°C° 0 mm 2 mps 682 mmHg 25%
    11:00 +34°C° 0 mm 2 mps 682 mmHg 21%
    12:00 +36°C° 0 mm 3 mps 682 mmHg 16%
    13:00 +36°C° 0 mm 3 mps 682 mmHg 15%
    14:00 +37°C° 0 mm 3 mps 681 mmHg 14%
    15:00 +37°C° 0 mm 4 mps 681 mmHg 13%
    16:00 +36°C° 0 mm 5 mps 681 mmHg 17%
    17:00 +34°C° 0 mm 6 mps 681 mmHg 21%
    18:00 +33°C° 0 mm 7 mps 680 mmHg 24%
    19:00 +30°C° 0 mm 6 mps 681 mmHg 27%
    20:00 +29°C° 0 mm 5 mps 681 mmHg 30%
    21:00 +28°C° 0 mm 5 mps 682 mmHg 33%
    22:00 +27°C° 0 mm 4 mps 681 mmHg 35%
    23:00 +27°C° 0 mm 3 mps 681 mmHg 37%

    24 July, Wednesday

    Time Temperature Precipitation Wind Pressure Humidity
    00:00 +26°C° 0 mm 2 mps 681 mmHg 39%
    01:00 +26°C° 0 mm 2 mps 681 mmHg 40%
    02:00 +25°C° 0 mm 2 mps 681 mmHg 41%
    03:00 +25°C° 0 mm 2 mps 682 mmHg 42%
    04:00 +25°C° 0 mm 2 mps 682 mmHg 42%
    05:00 +25°C° 0 mm 2 mps 682 mmHg 42%
    06:00 +25°C° 0 mm 1 mps 682 mmHg 42%
    07:00 +26°C° 0 mm 2 mps 682 mmHg 39%
    08:00 +27°C° 0 mm 2 mps 682 mmHg 36%
    09:00 +28°C° 0 mm 2 mps 682 mmHg 32%
    10:00 +29°C° 0 mm 3 mps 682 mmHg 30%
    11:00 +30°C° 0 mm 3 mps 682 mmHg 29%
    12:00 +31°C° 0 mm 3 mps 682 mmHg 27%
    13:00 +32°C° 0.1 mm 4 mps 682 mmHg 25%
    14:00 +33°C° 0.1 mm 4 mps 682 mmHg 24%
    15:00 +34°C° 0.1 mm 4 mps 682 mmHg 22%
    16:00 +33°C° 0 mm 5 mps 682 mmHg 23%
    17:00 +33°C° 0 mm 6 mps 682 mmHg 23%
    18:00 +32°C° 0 mm 7 mps 682 mmHg 23%
    19:00 +30°C° 0 mm 6 mps 682 mmHg 25%
    20:00 +29°C° 0 mm 5 mps 682 mmHg 27%
    21:00 +28°C° 0 mm 4 mps 683 mmHg 28%
    22:00 +27°C° 0 mm 4 mps 682 mmHg 33%
    23:00 +26°C° 0 mm 3 mps 682 mmHg 37%
    Show more